TEVEL2-6

Last updated on Sun Aug 09 2026 00:03:16 GMT+0000 (Coordinated Universal Time)

1 63215U 25052F 26220.22628747 .00008853 00000+0 25381-3 0 9996 2 63215 97.3829 116.6672 0000571 17.7044 342.4220 15.36128581 78093
UTC large
Height (km)
Speed (km/s)
/
Latitude / Longitude
Inclination (degrees)
Orbital Period (minutes)
Azimuth
Elevation
Range (km)
Doppler Factor

Next 0 passes for location: London (51.5072 / 0.1276)

No passes found over London.
TEVEL2-6